owner,sensor,date,latitude,longitude,vertical_datum,sea_water_practical_salinity,qcFlag 
DISL,ioos:station:DISL:KATA:1,2015-08-01T00:00:00Z,30.2583,-88.2131,3.803,23.28,1111122 
DISL,ioos:station:DISL:KATA:1,2015-08-01T00:30:00Z,30.2583,-88.2131,3.789,23.2,1111122 
DISL,ioos:station:DISL:KATA:1,2015-08-01T01:00:00Z,30.2583,-88.2131,3.791,23.03,1111122 
DISL,ioos:station:DISL:KATA:1,2015-08-01T01:30:00Z,30.2583,-88.2131,3.776,23.45,1111122 
DISL,ioos:station:DISL:KATA:1,2015-08-01T02:00:00Z,30.2583,-88.2131,3.796,23.29,1111122 
DISL,ioos:station:DISL:KATA:1,2015-08-01T02:30:00Z,30.2583,-88.2131,3.8,23.33,1111122 
DISL,ioos:station:DISL:KATA:1,2015-08-01T03:00:00Z,30.2583,-88.2131,3.803,23.26,1111122 
DISL,ioos:station:DISL:KATA:1,2015-08-01T03:30:00Z,30.2583,-88.2131,3.804,23.32,1111122 
DISL,ioos:station:DISL:KATA:1,2015-08-01T04:00:00Z,30.2583,-88.2131,3.817,23.24,1111122 
DISL,ioos:station:DISL:KATA:1,2015-08-01T04:30:00Z,30.2583,-88.2131,3.844,23.8,1111122 
DISL,ioos:station:DISL:KATA:1,2015-08-01T05:00:00Z,30.2583,-88.2131,3.887,23.31,1111122 
DISL,ioos:station:DISL:KATA:1,2015-08-01T05:30:00Z,30.2583,-88.2131,3.902,23.3,1111122 
DISL,ioos:station:DISL:KATA:1,2015-08-01T06:00:00Z,30.2583,-88.2131,3.93,23.26,1111122 
DISL,ioos:station:DISL:KATA:1,2015-08-01T06:30:00Z,30.2583,-88.2131,3.967,23.44,1111122 
DISL,ioos:station:DISL:KATA:1,2015-08-01T07:00:00Z,30.2583,-88.2131,3.984,23.46,1111122 
DISL,ioos:station:DISL:KATA:1,2015-08-01T07:30:00Z,30.2583,-88.2131,4.003,23.74,1111122 
DISL,ioos:station:DISL:KATA:1,2015-08-01T08:00:00Z,30.2583,-88.2131,4.028,23.83,1111122 
DISL,ioos:station:DISL:KATA:1,2015-08-01T08:30:00Z,30.2583,-88.2131,4.047,24.78,1111122 
DISL,ioos:station:DISL:KATA:1,2015-08-01T09:00:00Z,30.2583,-88.2131,4.064,24.12,1111122 
DISL,ioos:station:DISL:KATA:1,2015-08-01T09:30:00Z,30.2583,-88.2131,4.075,24.67,1111122 
DISL,ioos:station:DISL:KATA:1,2015-08-01T10:00:00Z,30.2583,-88.2131,4.092,24.88,1111122 
DISL,ioos:station:DISL:KATA:1,2015-08-01T10:30:00Z,30.2583,-88.2131,4.107,24.78,1111122 
DISL,ioos:station:DISL:KATA:1,2015-08-01T11:00:00Z,30.2583,-88.2131,4.121,25.1,1111122 
DISL,ioos:station:DISL:KATA:1,2015-08-01T11:30:00Z,30.2583,-88.2131,4.146,24.47,1111122 
DISL,ioos:station:DISL:KATA:1,2015-08-01T12:00:00Z,30.2583,-88.2131,4.171,24.46,1111122 
DISL,ioos:station:DISL:KATA:1,2015-08-01T12:30:00Z,30.2583,-88.2131,4.199,24.58,1111122 
DISL,ioos:station:DISL:KATA:1,2015-08-01T13:00:00Z,30.2583,-88.2131,4.227,24.65,1111122 
DISL,ioos:station:DISL:KATA:1,2015-08-01T13:30:00Z,30.2583,-88.2131,4.277,24.8,1111122 
DISL,ioos:station:DISL:KATA:1,2015-08-01T14:00:00Z,30.2583,-88.2131,4.294,25.45,1111122 
DISL,ioos:station:DISL:KATA:1,2015-08-01T14:30:00Z,30.2583,-88.2131,4.328,25.77,1111122 
DISL,ioos:station:DISL:KATA:1,2015-08-01T15:00:00Z,30.2583,-88.2131,4.354,26.06,1111122 
DISL,ioos:station:DISL:KATA:1,2015-08-01T15:30:00Z,30.2583,-88.2131,4.355,27.15,1111122 
DISL,ioos:station:DISL:KATA:1,2015-08-01T16:00:00Z,30.2583,-88.2131,4.364,27.28,1111122 
DISL,ioos:station:DISL:KATA:1,2015-08-01T16:30:00Z,30.2583,-88.2131,4.369,26.95,1111122 
DISL,ioos:station:DISL:KATA:1,2015-08-01T17:00:00Z,30.2583,-88.2131,4.366,27.59,1111122 
DISL,ioos:station:DISL:KATA:1,2015-08-01T17:30:00Z,30.2583,-88.2131,4.345,27.84,1111122 
DISL,ioos:station:DISL:KATA:1,2015-08-01T18:00:00Z,30.2583,-88.2131,4.313,32.11,1111122 
DISL,ioos:station:DISL:KATA:1,2015-08-01T18:30:00Z,30.2583,-88.2131,4.293,32.17,1111122 
DISL,ioos:station:DISL:KATA:1,2015-08-01T19:00:00Z,30.2583,-88.2131,4.269,32.12,1111122 
DISL,ioos:station:DISL:KATA:1,2015-08-01T19:30:00Z,30.2583,-88.2131,4.231,32.17,1111122 
DISL,ioos:station:DISL:KATA:1,2015-08-01T20:00:00Z,30.2583,-88.2131,4.191,32.18,1111122 
DISL,ioos:station:DISL:KATA:1,2015-08-01T20:30:00Z,30.2583,-88.2131,4.156,32.15,1111122 
DISL,ioos:station:DISL:KATA:1,2015-08-01T21:00:00Z,30.2583,-88.2131,4.12,32.1,1111122 
DISL,ioos:station:DISL:KATA:1,2015-08-01T21:30:00Z,30.2583,-88.2131,4.063,32.08,1111122 
DISL,ioos:station:DISL:KATA:1,2015-08-01T22:00:00Z,30.2583,-88.2131,4.027,31.94,1111122 
DISL,ioos:station:DISL:KATA:1,2015-08-01T22:30:00Z,30.2583,-88.2131,3.985,31.9,1111122 
DISL,ioos:station:DISL:KATA:1,2015-08-01T23:00:00Z,30.2583,-88.2131,3.934,31.57,1111122 
DISL,ioos:station:DISL:KATA:1,2015-08-01T23:30:00Z,30.2583,-88.2131,3.897,31.63,1111122 
DISL,ioos:station:DISL:KATA:1,2015-08-02T00:00:00Z,30.2583,-88.2131,3.865,31.39,1111122 
DISL,ioos:station:DISL:KATA:1,2015-08-02T00:30:00Z,30.2583,-88.2131,3.849,31.72,1111122 
DISL,ioos:station:DISL:KATA:1,2015-08-02T01:00:00Z,30.2583,-88.2131,3.837,31.76,1111122 
DISL,ioos:station:DISL:KATA:1,2015-08-02T01:30:00Z,30.2583,-88.2131,3.83,31.8,1111122 
DISL,ioos:station:DISL:KATA:1,2015-08-02T02:00:00Z,30.2583,-88.2131,3.827,31.68,1111122 
DISL,ioos:station:DISL:KATA:1,2015-08-02T02:30:00Z,30.2583,-88.2131,3.832,31.67,1111122 
DISL,ioos:station:DISL:KATA:1,2015-08-02T03:00:00Z,30.2583,-88.2131,3.843,31.8,1111122 
DISL,ioos:station:DISL:KATA:1,2015-08-02T03:30:00Z,30.2583,-88.2131,3.842,31.45,1111122 
DISL,ioos:station:DISL:KATA:1,2015-08-02T04:00:00Z,30.2583,-88.2131,3.859,31.77,1111122 
DISL,ioos:station:DISL:KATA:1,2015-08-02T04:30:00Z,30.2583,-88.2131,3.88,31.82,1111122 
DISL,ioos:station:DISL:KATA:1,2015-08-02T05:00:00Z,30.2583,-88.2131,3.891,31.86,1111122 
DISL,ioos:station:DISL:KATA:1,2015-08-02T05:30:00Z,30.2583,-88.2131,3.91,31.82,1111122 
DISL,ioos:station:DISL:KATA:1,2015-08-02T06:00:00Z,30.2583,-88.2131,3.93,31.81,1111122 
DISL,ioos:station:DISL:KATA:1,2015-08-02T06:30:00Z,30.2583,-88.2131,3.94,31.82,1111122 
DISL,ioos:station:DISL:KATA:1,2015-08-02T07:00:00Z,30.2583,-88.2131,3.971,31.84,1111122 
DISL,ioos:station:DISL:KATA:1,2015-08-02T07:30:00Z,30.2583,-88.2131,3.998,31.89,1111122 
DISL,ioos:station:DISL:KATA:1,2015-08-02T08:00:00Z,30.2583,-88.2131,4.031,31.92,1111122 
DISL,ioos:station:DISL:KATA:1,2015-08-02T08:30:00Z,30.2583,-88.2131,4.048,31.93,1111122 
DISL,ioos:station:DISL:KATA:1,2015-08-02T09:00:00Z,30.2583,-88.2131,4.06,31.94,1111122 
DISL,ioos:station:DISL:KATA:1,2015-08-02T09:30:00Z,30.2583,-88.2131,4.058,31.91,1111122 
DISL,ioos:station:DISL:KATA:1,2015-08-02T10:00:00Z,30.2583,-88.2131,4.05,31.87,1111122 
DISL,ioos:station:DISL:KATA:1,2015-08-02T10:30:00Z,30.2583,-88.2131,4.059,31.83,1111122 
DISL,ioos:station:DISL:KATA:1,2015-08-02T11:00:00Z,30.2583,-88.2131,4.06,31.81,1111122 
DISL,ioos:station:DISL:KATA:1,2015-08-02T11:30:00Z,30.2583,-88.2131,4.072,31.77,1111122 
DISL,ioos:station:DISL:KATA:1,2015-08-02T12:00:00Z,30.2583,-88.2131,4.096,31.75,1111122 
DISL,ioos:station:DISL:KATA:1,2015-08-02T12:30:00Z,30.2583,-88.2131,4.13,31.71,1111122 
DISL,ioos:station:DISL:KATA:1,2015-08-02T13:00:00Z,30.2583,-88.2131,4.167,31.67,1111122 
DISL,ioos:station:DISL:KATA:1,2015-08-02T13:30:00Z,30.2583,-88.2131,4.205,31.62,1111122 
DISL,ioos:station:DISL:KATA:1,2015-08-02T14:00:00Z,30.2583,-88.2131,4.226,31.57,1111122 
DISL,ioos:station:DISL:KATA:1,2015-08-02T14:30:00Z,30.2583,-88.2131,4.25,31.53,1111122 
DISL,ioos:station:DISL:KATA:1,2015-08-02T15:00:00Z,30.2583,-88.2131,4.277,31.45,1111122 
DISL,ioos:station:DISL:KATA:1,2015-08-02T15:30:00Z,30.2583,-88.2131,4.294,31.42,1111122 
DISL,ioos:station:DISL:KATA:1,2015-08-02T16:00:00Z,30.2583,-88.2131,4.305,31.37,1111122 
DISL,ioos:station:DISL:KATA:1,2015-08-02T16:30:00Z,30.2583,-88.2131,4.317,31.36,1111122 
DISL,ioos:station:DISL:KATA:1,2015-08-02T17:00:00Z,30.2583,-88.2131,4.318,31.31,1111122 
DISL,ioos:station:DISL:KATA:1,2015-08-02T17:30:00Z,30.2583,-88.2131,4.326,31.28,1111122 
DISL,ioos:station:DISL:KATA:1,2015-08-02T18:00:00Z,30.2583,-88.2131,4.32,31.24,1111122 
DISL,ioos:station:DISL:KATA:1,2015-08-02T18:30:00Z,30.2583,-88.2131,4.316,31.23,1111122 
DISL,ioos:station:DISL:KATA:1,2015-08-02T19:00:00Z,30.2583,-88.2131,4.295,31.22,1111122 
DISL,ioos:station:DISL:KATA:1,2015-08-02T19:30:00Z,30.2583,-88.2131,4.279,31.21,1111122 
DISL,ioos:station:DISL:KATA:1,2015-08-02T20:00:00Z,30.2583,-88.2131,4.262,31.21,1111122 
DISL,ioos:station:DISL:KATA:1,2015-08-02T20:30:00Z,30.2583,-88.2131,4.245,31.21,1111122 
DISL,ioos:station:DISL:KATA:1,2015-08-02T21:00:00Z,30.2583,-88.2131,4.225,31.21,1111122 
DISL,ioos:station:DISL:KATA:1,2015-08-02T21:30:00Z,30.2583,-88.2131,4.185,31.21,1111122 
DISL,ioos:station:DISL:KATA:1,2015-08-02T22:00:00Z,30.2583,-88.2131,4.14,31.23,1111122 
DISL,ioos:station:DISL:KATA:1,2015-08-02T22:30:00Z,30.2583,-88.2131,4.101,31.26,1111122 
DISL,ioos:station:DISL:KATA:1,2015-08-02T23:00:00Z,30.2583,-88.2131,4.071,31.23,1111122 
DISL,ioos:station:DISL:KATA:1,2015-08-02T23:30:00Z,30.2583,-88.2131,4.033,31.23,1111122 
DISL,ioos:station:DISL:KATA:1,2015-08-03T00:00:00Z,30.2583,-88.2131,4.002,31.19,1111122 
DISL,ioos:station:DISL:KATA:1,2015-08-03T00:30:00Z,30.2583,-88.2131,3.981,31.09,1111122 
DISL,ioos:station:DISL:KATA:1,2015-08-03T01:00:00Z,30.2583,-88.2131,3.968,30.96,1111122 
DISL,ioos:station:DISL:KATA:1,2015-08-03T01:30:00Z,30.2583,-88.2131,3.963,30.92,1111122 
DISL,ioos:station:DISL:KATA:1,2015-08-03T02:00:00Z,30.2583,-88.2131,3.953,30.8,1111122 
DISL,ioos:station:DISL:KATA:1,2015-08-03T02:30:00Z,30.2583,-88.2131,3.966,30.77,1111122 
DISL,ioos:station:DISL:KATA:1,2015-08-03T03:00:00Z,30.2583,-88.2131,3.986,30.82,1111122 
DISL,ioos:station:DISL:KATA:1,2015-08-03T03:30:00Z,30.2583,-88.2131,3.998,30.8,1111122 
DISL,ioos:station:DISL:KATA:1,2015-08-03T04:00:00Z,30.2583,-88.2131,4.016,30.79,1111122 
DISL,ioos:station:DISL:KATA:1,2015-08-03T04:30:00Z,30.2583,-88.2131,4.022,30.81,1111122 
DISL,ioos:station:DISL:KATA:1,2015-08-03T05:00:00Z,30.2583,-88.2131,4.02,30.84,1111122 
DISL,ioos:station:DISL:KATA:1,2015-08-03T05:30:00Z,30.2583,-88.2131,4.012,30.88,1111122 
DISL,ioos:station:DISL:KATA:1,2015-08-03T06:00:00Z,30.2583,-88.2131,4.004,30.89,1111122 
DISL,ioos:station:DISL:KATA:1,2015-08-03T06:30:00Z,30.2583,-88.2131,4.023,30.71,1111122 
DISL,ioos:station:DISL:KATA:1,2015-08-03T07:00:00Z,30.2583,-88.2131,4.025,30.69,1111122 
DISL,ioos:station:DISL:KATA:1,2015-08-03T07:30:00Z,30.2583,-88.2131,4.046,30.77,1111122 
DISL,ioos:station:DISL:KATA:1,2015-08-03T08:00:00Z,30.2583,-88.2131,4.071,30.7,1111122 
DISL,ioos:station:DISL:KATA:1,2015-08-03T08:30:00Z,30.2583,-88.2131,4.091,30.35,1111122 
DISL,ioos:station:DISL:KATA:1,2015-08-03T09:00:00Z,30.2583,-88.2131,4.107,30.69,1111122 
DISL,ioos:station:DISL:KATA:1,2015-08-03T09:30:00Z,30.2583,-88.2131,4.116,30.71,1111122 
DISL,ioos:station:DISL:KATA:1,2015-08-03T10:00:00Z,30.2583,-88.2131,4.098,30.57,1111122 
DISL,ioos:station:DISL:KATA:1,2015-08-03T10:30:00Z,30.2583,-88.2131,4.084,29.75,1111122 
DISL,ioos:station:DISL:KATA:1,2015-08-03T11:00:00Z,30.2583,-88.2131,4.073,29.82,1111122 
DISL,ioos:station:DISL:KATA:1,2015-08-03T11:30:00Z,30.2583,-88.2131,4.037,30.25,1111122 
DISL,ioos:station:DISL:KATA:1,2015-08-03T12:00:00Z,30.2583,-88.2131,4.017,30.19,1111122 
DISL,ioos:station:DISL:KATA:1,2015-08-03T12:30:00Z,30.2583,-88.2131,4.007,30.02,1111122 
DISL,ioos:station:DISL:KATA:1,2015-08-03T13:00:00Z,30.2583,-88.2131,4.015,30.17,1111122 
DISL,ioos:station:DISL:KATA:1,2015-08-03T13:30:00Z,30.2583,-88.2131,4.042,30.39,1111122 
DISL,ioos:station:DISL:KATA:1,2015-08-03T14:00:00Z,30.2583,-88.2131,4.071,30.46,1111122 
DISL,ioos:station:DISL:KATA:1,2015-08-03T14:30:00Z,30.2583,-88.2131,4.106,30.44,1111122 
DISL,ioos:station:DISL:KATA:1,2015-08-03T15:00:00Z,30.2583,-88.2131,4.125,30.43,1111122 
DISL,ioos:station:DISL:KATA:1,2015-08-03T15:30:00Z,30.2583,-88.2131,4.143,29.83,1111122 
DISL,ioos:station:DISL:KATA:1,2015-08-03T16:00:00Z,30.2583,-88.2131,4.172,30.26,1111122 
DISL,ioos:station:DISL:KATA:1,2015-08-03T16:30:00Z,30.2583,-88.2131,4.17,29.54,1111122 
DISL,ioos:station:DISL:KATA:1,2015-08-03T17:00:00Z,30.2583,-88.2131,4.176,28.87,1111122 
DISL,ioos:station:DISL:KATA:1,2015-08-03T17:30:00Z,30.2583,-88.2131,4.176,28.93,1111122 
DISL,ioos:station:DISL:KATA:1,2015-08-03T18:00:00Z,30.2583,-88.2131,4.179,29.26,1111122 
DISL,ioos:station:DISL:KATA:1,2015-08-03T18:30:00Z,30.2583,-88.2131,4.187,29.21,1111122 
DISL,ioos:station:DISL:KATA:1,2015-08-03T19:00:00Z,30.2583,-88.2131,4.191,29.18,1111122 
DISL,ioos:station:DISL:KATA:1,2015-08-03T19:30:00Z,30.2583,-88.2131,4.195,29.0,1111122 
DISL,ioos:station:DISL:KATA:1,2015-08-03T20:00:00Z,30.2583,-88.2131,4.218,29.3,1111122 
DISL,ioos:station:DISL:KATA:1,2015-08-03T20:30:00Z,30.2583,-88.2131,4.224,28.96,1111122 
DISL,ioos:station:DISL:KATA:1,2015-08-03T21:00:00Z,30.2583,-88.2131,4.226,29.06,1111122 
DISL,ioos:station:DISL:KATA:1,2015-08-03T21:30:00Z,30.2583,-88.2131,4.221,28.78,1111122 
DISL,ioos:station:DISL:KATA:1,2015-08-03T22:00:00Z,30.2583,-88.2131,4.187,29.07,1111122 
DISL,ioos:station:DISL:KATA:1,2015-08-03T22:30:00Z,30.2583,-88.2131,4.141,29.18,1111122 
DISL,ioos:station:DISL:KATA:1,2015-08-03T23:00:00Z,30.2583,-88.2131,4.087,29.16,1111122 
DISL,ioos:station:DISL:KATA:1,2015-08-03T23:30:00Z,30.2583,-88.2131,4.021,29.17,1111122 
DISL,ioos:station:DISL:KATA:1,2015-08-04T00:00:00Z,30.2583,-88.2131,3.976,28.97,1111122 
DISL,ioos:station:DISL:KATA:1,2015-08-04T00:30:00Z,30.2583,-88.2131,3.941,28.92,1111122 
DISL,ioos:station:DISL:KATA:1,2015-08-04T01:00:00Z,30.2583,-88.2131,3.919,28.89,1111122 
DISL,ioos:station:DISL:KATA:1,2015-08-04T01:30:00Z,30.2583,-88.2131,3.9,28.76,1111122 
DISL,ioos:station:DISL:KATA:1,2015-08-04T02:00:00Z,30.2583,-88.2131,3.885,28.79,1111122 
DISL,ioos:station:DISL:KATA:1,2015-08-04T02:30:00Z,30.2583,-88.2131,3.883,28.63,1111122 
DISL,ioos:station:DISL:KATA:1,2015-08-04T03:00:00Z,30.2583,-88.2131,3.901,28.57,1111122 
DISL,ioos:station:DISL:KATA:1,2015-08-04T03:30:00Z,30.2583,-88.2131,3.927,28.49,1111122 
DISL,ioos:station:DISL:KATA:1,2015-08-04T04:00:00Z,30.2583,-88.2131,3.944,28.38,1111122 
DISL,ioos:station:DISL:KATA:1,2015-08-04T04:30:00Z,30.2583,-88.2131,3.968,28.45,1111122 
DISL,ioos:station:DISL:KATA:1,2015-08-04T05:00:00Z,30.2583,-88.2131,3.977,28.35,1111122 
DISL,ioos:station:DISL:KATA:1,2015-08-04T05:30:00Z,30.2583,-88.2131,3.979,28.39,1111122 
DISL,ioos:station:DISL:KATA:1,2015-08-04T06:00:00Z,30.2583,-88.2131,3.988,28.4,1111122 
DISL,ioos:station:DISL:KATA:1,2015-08-04T06:30:00Z,30.2583,-88.2131,3.995,28.44,1111122 
DISL,ioos:station:DISL:KATA:1,2015-08-04T07:00:00Z,30.2583,-88.2131,4.008,28.31,1111122 
DISL,ioos:station:DISL:KATA:1,2015-08-04T07:30:00Z,30.2583,-88.2131,4.005,28.45,1111122 
DISL,ioos:station:DISL:KATA:1,2015-08-04T08:00:00Z,30.2583,-88.2131,4.009,28.38,1111122 
DISL,ioos:station:DISL:KATA:1,2015-08-04T08:30:00Z,30.2583,-88.2131,4.007,28.4,1111122 
DISL,ioos:station:DISL:KATA:1,2015-08-04T09:00:00Z,30.2583,-88.2131,3.996,28.6,1111122 
DISL,ioos:station:DISL:KATA:1,2015-08-04T09:30:00Z,30.2583,-88.2131,4.009,28.63,1111122 
DISL,ioos:station:DISL:KATA:1,2015-08-04T10:00:00Z,30.2583,-88.2131,4.008,28.64,1111122 
DISL,ioos:station:DISL:KATA:1,2015-08-04T10:30:00Z,30.2583,-88.2131,4.009,28.67,1111122 
DISL,ioos:station:DISL:KATA:1,2015-08-04T11:00:00Z,30.2583,-88.2131,4.004,28.66,1111122 
DISL,ioos:station:DISL:KATA:1,2015-08-04T11:30:00Z,30.2583,-88.2131,3.999,28.47,1111122 
DISL,ioos:station:DISL:KATA:1,2015-08-04T12:00:00Z,30.2583,-88.2131,3.993,28.6,1111122 
DISL,ioos:station:DISL:KATA:1,2015-08-04T12:30:00Z,30.2583,-88.2131,3.979,28.57,1111122 
DISL,ioos:station:DISL:KATA:1,2015-08-04T13:00:00Z,30.2583,-88.2131,3.969,28.57,1111122 
DISL,ioos:station:DISL:KATA:1,2015-08-04T13:30:00Z,30.2583,-88.2131,3.963,28.52,1111122 
DISL,ioos:station:DISL:KATA:1,2015-08-04T14:00:00Z,30.2583,-88.2131,3.968,28.6,1111122 
DISL,ioos:station:DISL:KATA:1,2015-08-04T14:30:00Z,30.2583,-88.2131,3.968,28.57,1111122 
DISL,ioos:station:DISL:KATA:1,2015-08-04T15:00:00Z,30.2583,-88.2131,3.984,28.58,1111122 
DISL,ioos:station:DISL:KATA:1,2015-08-04T15:30:00Z,30.2583,-88.2131,4.009,28.59,1111122 
DISL,ioos:station:DISL:KATA:1,2015-08-04T16:00:00Z,30.2583,-88.2131,4.037,28.59,1111122 
DISL,ioos:station:DISL:KATA:1,2015-08-04T16:30:00Z,30.2583,-88.2131,4.056,28.56,1111122 
DISL,ioos:station:DISL:KATA:1,2015-08-04T17:00:00Z,30.2583,-88.2131,4.075,28.6,1111122 
DISL,ioos:station:DISL:KATA:1,2015-08-04T17:30:00Z,30.2583,-88.2131,4.083,28.63,1111122 
DISL,ioos:station:DISL:KATA:1,2015-08-04T18:00:00Z,30.2583,-88.2131,4.075,28.59,1111122 
DISL,ioos:station:DISL:KATA:1,2015-08-04T18:30:00Z,30.2583,-88.2131,4.077,28.61,1111122 
DISL,ioos:station:DISL:KATA:1,2015-08-04T19:00:00Z,30.2583,-88.2131,4.083,28.69,1111122 
DISL,ioos:station:DISL:KATA:1,2015-08-04T19:30:00Z,30.2583,-88.2131,4.069,28.67,1111122 
DISL,ioos:station:DISL:KATA:1,2015-08-04T20:00:00Z,30.2583,-88.2131,4.03,28.62,1111122 
DISL,ioos:station:DISL:KATA:1,2015-08-04T20:30:00Z,30.2583,-88.2131,3.997,28.63,1111122 
DISL,ioos:station:DISL:KATA:1,2015-08-04T21:00:00Z,30.2583,-88.2131,3.974,28.64,1111122 
DISL,ioos:station:DISL:KATA:1,2015-08-04T21:30:00Z,30.2583,-88.2131,3.994,28.65,1111122 
DISL,ioos:station:DISL:KATA:1,2015-08-04T22:00:00Z,30.2583,-88.2131,4.015,28.66,1111122 
DISL,ioos:station:DISL:KATA:1,2015-08-04T22:30:00Z,30.2583,-88.2131,4.025,28.65,1111122 
DISL,ioos:station:DISL:KATA:1,2015-08-04T23:00:00Z,30.2583,-88.2131,4.034,28.61,1111122 
DISL,ioos:station:DISL:KATA:1,2015-08-04T23:30:00Z,30.2583,-88.2131,4.023,28.59,1111122 
DISL,ioos:station:DISL:KATA:1,2015-08-05T00:00:00Z,30.2583,-88.2131,4.015,28.61,1111122 
DISL,ioos:station:DISL:KATA:1,2015-08-05T00:30:00Z,30.2583,-88.2131,4.004,28.62,1111122 
DISL,ioos:station:DISL:KATA:1,2015-08-05T01:00:00Z,30.2583,-88.2131,3.992,28.58,1111122 
DISL,ioos:station:DISL:KATA:1,2015-08-05T01:30:00Z,30.2583,-88.2131,3.984,28.63,1111122 
DISL,ioos:station:DISL:KATA:1,2015-08-05T02:00:00Z,30.2583,-88.2131,3.978,28.61,1111122 
DISL,ioos:station:DISL:KATA:1,2015-08-05T02:30:00Z,30.2583,-88.2131,3.98,28.62,1111122 
DISL,ioos:station:DISL:KATA:1,2015-08-05T03:00:00Z,30.2583,-88.2131,4.001,28.62,1111122 
DISL,ioos:station:DISL:KATA:1,2015-08-05T03:30:00Z,30.2583,-88.2131,4.022,28.6,1111122 
DISL,ioos:station:DISL:KATA:1,2015-08-05T04:00:00Z,30.2583,-88.2131,4.04,28.65,1111122 
DISL,ioos:station:DISL:KATA:1,2015-08-05T04:30:00Z,30.2583,-88.2131,4.051,28.59,1111122 
DISL,ioos:station:DISL:KATA:1,2015-08-05T05:00:00Z,30.2583,-88.2131,4.052,28.72,1111122 
DISL,ioos:station:DISL:KATA:1,2015-08-05T05:30:00Z,30.2583,-88.2131,4.053,28.86,1111122 
DISL,ioos:station:DISL:KATA:1,2015-08-05T06:00:00Z,30.2583,-88.2131,4.069,28.93,1111122 
DISL,ioos:station:DISL:KATA:1,2015-08-05T06:30:00Z,30.2583,-88.2131,4.079,28.99,1111122 
DISL,ioos:station:DISL:KATA:1,2015-08-05T07:00:00Z,30.2583,-88.2131,4.084,28.94,1111122 
DISL,ioos:station:DISL:KATA:1,2015-08-05T07:30:00Z,30.2583,-88.2131,4.097,28.94,1111122 
DISL,ioos:station:DISL:KATA:1,2015-08-05T08:00:00Z,30.2583,-88.2131,4.112,28.98,1111122 
DISL,ioos:station:DISL:KATA:1,2015-08-05T08:30:00Z,30.2583,-88.2131,4.129,29.02,1111122 
DISL,ioos:station:DISL:KATA:1,2015-08-05T09:00:00Z,30.2583,-88.2131,4.155,29.09,1111122 
DISL,ioos:station:DISL:KATA:1,2015-08-05T09:30:00Z,30.2583,-88.2131,4.096,29.15,1111122 
DISL,ioos:station:DISL:KATA:1,2015-08-05T10:00:00Z,30.2583,-88.2131,4.116,29.08,1111122 
DISL,ioos:station:DISL:KATA:1,2015-08-05T10:30:00Z,30.2583,-88.2131,4.066,29.25,1111122 
DISL,ioos:station:DISL:KATA:1,2015-08-05T11:00:00Z,30.2583,-88.2131,4.113,29.23,1111122 
DISL,ioos:station:DISL:KATA:1,2015-08-05T11:30:00Z,30.2583,-88.2131,4.113,29.23,1111122 
DISL,ioos:station:DISL:KATA:1,2015-08-05T12:00:00Z,30.2583,-88.2131,4.036,29.17,1111122 
DISL,ioos:station:DISL:KATA:1,2015-08-05T12:30:00Z,30.2583,-88.2131,4.036,29.17,1111122 
DISL,ioos:station:DISL:KATA:1,2015-08-05T13:00:00Z,30.2583,-88.2131,4.021,29.05,1111122 
DISL,ioos:station:DISL:KATA:1,2015-08-05T13:30:00Z,30.2583,-88.2131,4.003,29.09,1111122 
DISL,ioos:station:DISL:KATA:1,2015-08-05T14:00:00Z,30.2583,-88.2131,3.991,28.8,1111122 
DISL,ioos:station:DISL:KATA:1,2015-08-05T14:30:00Z,30.2583,-88.2131,3.952,28.76,1111122 
DISL,ioos:station:DISL:KATA:1,2015-08-05T15:00:00Z,30.2583,-88.2131,3.914,28.79,1111122 
DISL,ioos:station:DISL:KATA:1,2015-08-05T15:30:00Z,30.2583,-88.2131,3.913,28.73,1111122 
DISL,ioos:station:DISL:KATA:1,2015-08-05T16:00:00Z,30.2583,-88.2131,3.932,28.67,1111122 
DISL,ioos:station:DISL:KATA:1,2015-08-05T16:30:00Z,30.2583,-88.2131,3.946,28.61,1111122 
DISL,ioos:station:DISL:KATA:1,2015-08-05T17:00:00Z,30.2583,-88.2131,3.945,28.7,1111122 
DISL,ioos:station:DISL:KATA:1,2015-08-05T17:30:00Z,30.2583,-88.2131,3.943,28.66,1111122 
DISL,ioos:station:DISL:KATA:1,2015-08-05T18:00:00Z,30.2583,-88.2131,3.948,28.66,1111122 
DISL,ioos:station:DISL:KATA:1,2015-08-05T18:30:00Z,30.2583,-88.2131,3.942,28.73,1111122 
DISL,ioos:station:DISL:KATA:1,2015-08-05T19:00:00Z,30.2583,-88.2131,3.949,28.79,1111122 
DISL,ioos:station:DISL:KATA:1,2015-08-05T19:30:00Z,30.2583,-88.2131,3.941,28.83,1111122 
DISL,ioos:station:DISL:KATA:1,2015-08-05T20:00:00Z,30.2583,-88.2131,3.959,28.86,1111122 
DISL,ioos:station:DISL:KATA:1,2015-08-05T20:30:00Z,30.2583,-88.2131,3.933,28.86,1111122 
DISL,ioos:station:DISL:KATA:1,2015-08-05T21:00:00Z,30.2583,-88.2131,3.942,28.84,1111122 
DISL,ioos:station:DISL:KATA:1,2015-08-05T21:30:00Z,30.2583,-88.2131,3.954,28.8,1111122 
DISL,ioos:station:DISL:KATA:1,2015-08-05T22:00:00Z,30.2583,-88.2131,3.992,28.67,1111122 
DISL,ioos:station:DISL:KATA:1,2015-08-05T22:30:00Z,30.2583,-88.2131,3.989,28.67,1111122 
DISL,ioos:station:DISL:KATA:1,2015-08-05T23:00:00Z,30.2583,-88.2131,3.996,28.58,1111122 
DISL,ioos:station:DISL:KATA:1,2015-08-05T23:30:00Z,30.2583,-88.2131,3.988,28.55,1111122 
DISL,ioos:station:DISL:KATA:1,2015-08-06T00:00:00Z,30.2583,-88.2131,3.991,28.56,1111122 
DISL,ioos:station:DISL:KATA:1,2015-08-06T00:30:00Z,30.2583,-88.2131,3.986,28.68,1111122 
DISL,ioos:station:DISL:KATA:1,2015-08-06T01:00:00Z,30.2583,-88.2131,3.959,28.69,1111122 
DISL,ioos:station:DISL:KATA:1,2015-08-06T01:30:00Z,30.2583,-88.2131,3.956,28.65,1111122 
DISL,ioos:station:DISL:KATA:1,2015-08-06T02:00:00Z,30.2583,-88.2131,3.959,28.62,1111122 
DISL,ioos:station:DISL:KATA:1,2015-08-06T02:30:00Z,30.2583,-88.2131,3.964,28.67,1111122 
DISL,ioos:station:DISL:KATA:1,2015-08-06T03:00:00Z,30.2583,-88.2131,3.968,28.66,1111122 
DISL,ioos:station:DISL:KATA:1,2015-08-06T03:30:00Z,30.2583,-88.2131,3.992,28.66,1111122 
DISL,ioos:station:DISL:KATA:1,2015-08-06T04:00:00Z,30.2583,-88.2131,4.016,28.67,1111122 
DISL,ioos:station:DISL:KATA:1,2015-08-06T04:30:00Z,30.2583,-88.2131,4.037,28.59,1111122 
DISL,ioos:station:DISL:KATA:1,2015-08-06T05:00:00Z,30.2583,-88.2131,4.063,28.6,1111122 
DISL,ioos:station:DISL:KATA:1,2015-08-06T05:30:00Z,30.2583,-88.2131,4.102,28.59,1111122 
DISL,ioos:station:DISL:KATA:1,2015-08-06T06:00:00Z,30.2583,-88.2131,4.11,28.59,1111122 
DISL,ioos:station:DISL:KATA:1,2015-08-06T06:30:00Z,30.2583,-88.2131,4.139,28.59,1111122 
DISL,ioos:station:DISL:KATA:1,2015-08-06T07:00:00Z,30.2583,-88.2131,4.153,28.4,1111122 
DISL,ioos:station:DISL:KATA:1,2015-08-06T07:30:00Z,30.2583,-88.2131,4.154,28.46,1111122 
DISL,ioos:station:DISL:KATA:1,2015-08-06T08:00:00Z,30.2583,-88.2131,4.163,28.42,1111122 
DISL,ioos:station:DISL:KATA:1,2015-08-06T08:30:00Z,30.2583,-88.2131,4.147,28.39,1111122 
DISL,ioos:station:DISL:KATA:1,2015-08-06T09:00:00Z,30.2583,-88.2131,4.128,28.38,1111122 
DISL,ioos:station:DISL:KATA:1,2015-08-06T09:30:00Z,30.2583,-88.2131,4.104,28.41,1111122 
DISL,ioos:station:DISL:KATA:1,2015-08-06T10:00:00Z,30.2583,-88.2131,4.082,28.44,1111122 
DISL,ioos:station:DISL:KATA:1,2015-08-06T10:30:00Z,30.2583,-88.2131,4.064,28.44,1111122 
DISL,ioos:station:DISL:KATA:1,2015-08-06T11:00:00Z,30.2583,-88.2131,4.061,28.45,1111122 
DISL,ioos:station:DISL:KATA:1,2015-08-06T11:30:00Z,30.2583,-88.2131,4.072,28.45,1111122 
DISL,ioos:station:DISL:KATA:1,2015-08-06T12:00:00Z,30.2583,-88.2131,4.064,28.46,1111122 
DISL,ioos:station:DISL:KATA:1,2015-08-06T12:30:00Z,30.2583,-88.2131,4.058,28.46,1111122 
DISL,ioos:station:DISL:KATA:1,2015-08-06T13:00:00Z,30.2583,-88.2131,4.075,28.47,1111122 
DISL,ioos:station:DISL:KATA:1,2015-08-06T13:30:00Z,30.2583,-88.2131,4.03,28.48,1111122 
DISL,ioos:station:DISL:KATA:1,2015-08-06T14:00:00Z,30.2583,-88.2131,4.015,28.48,1111122 